Weather Roundup
Issued by NWS Springfield, MO

Home | Current Version | Previous Version | Text Only | Print | Product List | Glossary On
Versions: 1 2 3 4 5 6 7 8 9 10 11 12 13 14 15 16 17 18 19 20 21 22 23 24 25 26 27 28 29 30 31 32 33 34 35 36 37 38 39 40 41 42 43 44 45 46 47 48 49 50
000
NZUS99 KSGF 271857
HRRSGF

HOURLY WEATHER
NATIONAL WEATHER SERVICE SPRINGFIELD MO
200 PM CDT WED JUL 27 2016

......SGF CWA......

CITY           SKY/WX    TMP DP  RH WIND       PRES   REMARKS
SPRINGFIELD    CLOUDY    80  73  79 SE3       30.00S
JOPLIN         PTSUNNY   87  75  67 VRB5      29.97F HX  96
WEST PLAINS    CLOUDY    87  70  56 SE7       30.00F HX  92
ROLLA          PTSUNNY   85  73  67 VRB3      29.98F HX  91
BRANSON        PTSUNNY   88  73  62 CALM      30.00F HX  96

......SURROUNDING SGF CWA......

CITY           SKY/WX    TMP DP  RH WIND       PRES   REMARKS
CHANUTE        PTSUNNY   90  74  59 MISG      29.97F HX  99
PARSONS        MOSUNNY   88  74  63 VRB3      29.98S HX  96
COFFEYVILLE    MOSUNNY   89  73  59 VRB5      29.96F HX  97
EMPORIA        SUNNY     88  70  55 SE3       29.99F HX  93
HARRISON AR    PTSUNNY   87  70  56 SE6       29.98F HX  92

......KANSAS AND MISSOURI......

CITY           SKY/WX    TMP DP  RH WIND       PRES   REMARKS
KANSAS CTY INT CLOUDY    87  70  56 VRB5      29.99F HX  92
SEDALIA        MOSUNNY   90  74  59 VRB5      29.98F HX  99
ST JOSEPH      CLOUDY    86  69  56 CALM      29.98F HX  90
ST LOUIS       MOSUNNY   89  71  55 CALM      29.96F HX  95
WICHITA        MOSUNNY   92  72  51 VRB5      29.99F HX  99
TOPEKA         MOSUNNY   89  68  49 NE7       29.98F HX  93
OLATHE         SUNNY     89  65  44 E6        29.98F HX  91

......TENNESSEE......

CITY           SKY/WX    TMP DP  RH WIND       PRES   REMARKS
MEMPHIS        NOT AVBL
NASHVILLE      CLOUDY    91  75  59 SW9       29.97F THUNDER HX 101

......ARKANSAS.......

CITY           SKY/WX    TMP DP  RH WIND       PRES   REMARKS
FAYETTEVILLE   CLOUDY    77  73  87 S8        29.99F
FT SMITH       PTSUNNY   86  74  67 SE6       29.93F HX  94
LITTLE ROCK    LGT RAIN  83  74  74 N20       29.92F

......OKLAHOMA.......

CITY           SKY/WX    TMP DP  RH WIND       PRES   REMARKS
TULSA          CLOUDY    90  74  59 E5        29.92F HX  99
PONCA CITY     SUNNY     91  71  51 CALM      29.94F HX  97
MCALESTER      MOSUNNY   87  74  64 NW8       29.95F THUNDER HX  95
OKLAHOMA CITY  MOSUNNY   90  72  55 CALM      29.96F HX  97

......IOWA............

CITY           SKY/WX    TMP DP  RH WIND       PRES   REMARKS
DES MOINES     NOT AVBL
QUAD CITIES    PTSUNNY   86  70  58 S10       29.97F HX  90

......ILLINOIS........

CITY           SKY/WX    TMP DP  RH WIND       PRES   REMARKS
QUINCY         NOT AVBL
CHICAGO        MOSUNNY   87  63  44 VRB5      29.98F



USA.gov is the U.S. government's official web portal to all federal, state and local government web resources and services.